Home   Weather   Chongqing   Past weeks

Flag for China Past Weather in Chongqing, Chongqing Municipality, China — Yesterday and Last 2 Weeks

Now
72 °F

Passing clouds.


Feels Like: 71 °F
Forecast: 71 / 86 °F
Wind: No wind

Location: Chongqing Airport

Current Time: Sep 29, 2016 at 11:23:16 PM

Latest Report: Sep 29, 2016 at 11:00 PM


Visibility: 5 mi

Pressure: 29.95 "Hg

Humidity: 83%

Dew Point: 66 °F

Location of ChongqingLocation

Past Weather in Chongqing — Graph

°F

Chongqing Temperature Yesterday

Maximum temperature yesterday: 72 °F (at 12:00 AM)
Minimum temperature yesterday: 70 °F (at 1:00 AM)
Average temperature yesterday: 71 °F

High & Low Weather Summary for the Past Weeks

 TemperatureHumidityPressure
High88 °F (Sep 17, 3:00 PM)94% (Sep 15, 4:00 AM)30.18 "Hg (Sep 15, 4:00 AM)
Low66 °F (Sep 16, 6:00 AM)38% (Sep 22, 3:00 PM)29.80 "Hg (Sep 25, 4:00 PM)
Average73 °F77%29.96 "Hg
* Reported Sep 14 10:00 PM — Sep 29 10:00 PM, Chongqing, Weather by CustomWeather, © 2016

Note: Actual official high and low records may vary slightly from our data, if they occured in-between our weather recording intervals... More about our weather records

Advertising

Chongqing Weather History for the Previous 24 Hours

Scroll right to see more
 ConditionsComfort  
Time TempWeatherWind HumidityBarometerVisibility
10:00 PM
Thu, Sep 29
72 °FPassing clouds.1 mph83%29.95 "Hg5 mi
9:00 PM72 °FMostly cloudy.1 mph83%29.95 "Hg5 mi
8:00 PM72 °FMostly cloudy.3 mph83%29.92 "Hg5 mi
7:00 PM72 °FMostly cloudy.1 mph83%29.92 "Hg5 mi
6:00 PM72 °FMore clouds than sun.1 mph83%29.89 "Hg5 mi
5:00 PM73 °FMore clouds than sun.1 mph78%29.89 "Hg4 mi
4:00 PM73 °FMore clouds than sun.1 mph83%29.89 "Hg4 mi
3:00 PM72 °FFog.3 mph83%29.92 "Hg3 mi
2:00 PM70 °FFog.1 mph88%29.95 "Hg3 mi
1:00 PM70 °FFog.3 mph88%29.95 "Hg3 mi
12:00 PM70 °FLight rain. Fog.3 mph88%29.98 "Hg2 mi
11:00 AM68 °FLight rain. Fog.1 mph94%30.01 "Hg1 mi
10:00 AM70 °FLight rain. Fog.3 mph88%29.98 "Hg1 mi
9:00 AM68 °FLight rain. Fog.6 mph94%29.98 "Hg1 mi
8:00 AM68 °FLight rain. Fog.3 mph88%29.98 "Hg1 mi
7:00 AM68 °FLight rain. Fog.1 mph88%29.95 "Hg1 mi
6:00 AM68 °FLight rain. Fog.1 mph88%29.95 "Hg1 mi
5:00 AM70 °FMostly cloudy.1 mph83%29.95 "HgN/A
4:00 AM70 °FMostly cloudy.1 mph83%29.95 "HgN/A
3:00 AM70 °FMostly cloudy.No wind83%29.95 "HgN/A
2:00 AM70 °FMostly cloudy.3 mph83%29.98 "HgN/A
1:00 AM70 °FMostly cloudy.1 mph83%29.98 "HgN/A
12:00 AM70 °FMostly cloudy.1 mph83%30.01 "HgN/A
11:00 PM
Wed, Sep 28
70 °FMostly cloudy.No wind83%30.01 "HgN/A
Weather by CustomWeather, © 2016

See weather overviewHow to use our weather pages